Weather History for Bartlesville, OK

Change the Weather History Date:

Wednesday, February 19, 2014

  Actual Average Record
Temperature  
Mean Temperature 48 °F -  
Max Temperature 66 °F 55 °F 77 °F (2011)
Min Temperature 30 °F 29 °F 5 °F (1978)
Degree Days  
Heating Degree Days 17    
Moisture  
Dew Point 43 °F    
Average Humidity 71    
Maximum Humidity 100    
Minimum Humidity 22    
Precipitation  
Precipitation 0.03 in - - ()
Sea Level Pressure  
Sea Level Pressure 29.77 in    
Wind  
Wind Speed 8 mph (SSE)    
Max Wind Speed 20 mph    
Max Gust Speed 26 mph    
Visibility 7 miles    
Events Rain    
Averages and records for this station are not official NWS values.
T = Trace of Precipitation, MM = Missing Value Source: NWS Daily Summary

Daily Weather History Graph

Daily Weather History Graph

Search for Another Location

Airport:

Trip Planner

Search our weather history database for the weather conditions in past years. The results will help you decide how hot, cold, wet, or windy it might be!

Date:

Astronomy

Feb. 19, 2014 Rise Set
Actual Time 7:07 AM CST 6:08 PM CST
Civil Twilight 6:41 AM CST 6:34 PM CST
Nautical Twilight 6:11 AM CST 7:05 PM CST
Astronomical Twilight 5:41 AM CST 7:35 PM CST
Moon 10:54 PM CST (2/19) 9:21 AM CST (2/19)
Length of Visible Light 11h 53m
Length of Day
11h 01m
Waning Gibbous, 79% of the Moon is Illuminated
Feb 19
Waning Gibbous
Feb 22
Last Quarter
Mar 1
New
Mar 8
First Quarter
Mar 16
Full

Hourly Weather History & Observations

Time (CST) Temp. Windchill Dew Point Humidity Pressure Visibility Wind Dir Wind Speed Gust Speed Precip Events Conditions
12:53 AM 48.9 °F - 28.0 °F 44% 29.99 in 10.0 mi North 11.5 mph - N/A   Clear
1:53 AM 46.9 °F - 28.0 °F 48% 29.97 in 10.0 mi North 5.8 mph - N/A   Clear
2:53 AM 46.0 °F - 28.9 °F 51% 29.98 in 10.0 mi Calm Calm - N/A   Clear
3:53 AM 39.9 °F - 28.9 °F 65% 29.99 in 10.0 mi Calm Calm - N/A   Clear
4:53 AM 36.0 °F - 28.9 °F 76% 30.00 in 10.0 mi Calm Calm - N/A   Clear
5:53 AM 32.0 °F - 28.0 °F 85% 30.01 in 10.0 mi Calm Calm - N/A   Clear
6:53 AM 30.9 °F - 27.0 °F 85% 29.99 in 10.0 mi Calm Calm - N/A   Clear
7:53 AM 35.1 °F - 30.0 °F 82% 30.00 in 10.0 mi Calm Calm - N/A   Clear
8:53 AM 44.1 °F 41.5 °F 32.0 °F 63% 30.00 in 10.0 mi NNE 4.6 mph - N/A   Clear
9:53 AM 48.9 °F - 33.1 °F 54% 29.97 in 10.0 mi Calm Calm - N/A   Clear
10:53 AM 55.0 °F - 28.0 °F 35% 29.92 in 10.0 mi East 11.5 mph - N/A   Clear
11:53 AM 60.1 °F - 23.0 °F 24% 29.89 in 10.0 mi ESE 16.1 mph 21.9 mph N/A   Mostly Cloudy
12:53 PM 61.0 °F - 21.9 °F 22% 29.83 in 10.0 mi ESE 12.7 mph - N/A   Mostly Cloudy
1:53 PM 63.0 °F - 24.1 °F 23% 29.77 in 10.0 mi ESE 12.7 mph - N/A   Overcast
2:53 PM 66.9 °F - 42.1 °F 40% 29.70 in 10.0 mi SE 16.1 mph 23.0 mph N/A   Mostly Cloudy
3:53 PM 66.9 °F - 52.0 °F 59% 29.67 in 7.0 mi SSE 19.6 mph 25.3 mph N/A   Overcast
4:53 PM 64.9 °F - 54.0 °F 68% 29.65 in 7.0 mi SSE 16.1 mph 25.3 mph N/A   Overcast
5:53 PM 63.0 °F - 54.0 °F 72% 29.65 in 7.0 mi South 19.6 mph 26.5 mph N/A   Overcast
6:53 PM 61.0 °F - 55.0 °F 81% 29.63 in 6.0 mi SSE 12.7 mph 21.9 mph N/A   Haze
7:15 PM 59.0 °F - 57.2 °F 94% 29.63 in 2.5 mi South 12.7 mph 19.6 mph 0.00 in Rain Light Rain
7:18 PM 59.0 °F - 57.2 °F 94% 29.63 in 2.0 mi South 8.1 mph 19.6 mph 0.00 in Rain Light Rain
7:32 PM 57.2 °F - 57.2 °F 100% 29.63 in 1.8 mi SSE 9.2 mph - 0.02 in Rain Light Rain
7:44 PM 57.2 °F - 57.2 °F 100% 29.63 in 2.5 mi SSE 9.2 mph - 0.02 in Rain Light Rain
7:53 PM 57.9 °F - 57.9 °F 100% 29.62 in 3.0 mi SSE 11.5 mph - 0.02 in   Overcast
8:53 PM 59.0 °F - 59.0 °F 100% 29.60 in 4.0 mi SSE 6.9 mph - N/A   Overcast
9:19 PM 60.8 °F - 60.8 °F 100% 29.60 in 8.0 mi South 10.4 mph 18.4 mph 0.01 in   Overcast
9:53 PM 62.1 °F - 59.0 °F 90% 29.57 in 7.0 mi South 10.4 mph 19.6 mph 0.01 in   Overcast
10:53 PM 62.1 °F - 59.0 °F 90% 29.56 in 5.0 mi South 8.1 mph - N/A   Overcast
11:26 PM 62.6 °F - 59.0 °F 88% 29.56 in 5.0 mi South 8.1 mph - N/A   Overcast
11:53 PM 61.0 °F - 59.0 °F 93% 29.52 in 5.0 mi SSE 8.1 mph - N/A   Overcast